This is the latest recevied weather packets stored in our database for station/object NO3U. If no packets are shown the sender has not sent any weather packets the latest 10 day(s).
| Time | Temp. | Humidity | Pressure | Rain* | Wind** | Luminosity | Snow |
|---|---|---|---|---|---|---|---|
| 1777928335 | 22.78° C | 46% | 1006.9 hPa | 0 mm | - | 170 W/m² | - |
| 1777928033 | 23.33° C | 47% | 1007 hPa | 0 mm | - | 424 W/m² | - |
| 1777927731 | 22.78° C | 47% | 1007 hPa | 0 mm | - | 484 W/m² | - |
| 1777927429 | 22.78° C | 46% | 1007 hPa | 0 mm | - | 434 W/m² | - |
| 1777927128 | 22.22° C | 48% | 1006.8 hPa | 0 mm | - | 460 W/m² | - |
| 1777926824 | 22.78° C | 47% | 1006.8 hPa | 0 mm | - | 125 W/m² | - |
| 1777926520 | 23.33° C | 45% | 1007.1 hPa | 0 mm | - | 470 W/m² | - |
| 1777926218 | 22.78° C | 46% | 1007 hPa | 0 mm | - | 506 W/m² | - |
| 1777925914 | 22.22° C | 48% | 1007 hPa | 0 mm | - | 138 W/m² | - |
| 1777925612 | 22.78° C | 47% | 1007 hPa | 0 mm | - | 149 W/m² | - |
| 1777925309 | 22.78° C | 46% | 1007.2 hPa | 0 mm | - | 162 W/m² | - |
| 1777925005 | 22.78° C | 47% | 1007.3 hPa | 0 mm | - | 554 W/m² | - |
| 1777924701 | 22.22° C | 47% | 1007.4 hPa | 0 mm | - | 234 W/m² | - |
| 1777924397 | 22.78° C | 48% | 1007.4 hPa | 0 mm | - | 573 W/m² | - |
| 1777924094 | 22.78° C | 46% | 1007.4 hPa | 0 mm | - | 553 W/m² | - |
| 1777923790 | 22.78° C | 45% | 1007.4 hPa | 0 mm | - | 562 W/m² | - |
| 1777923486 | 22.22° C | 48% | 1007.6 hPa | 0 mm | - | 609 W/m² | - |
| 1777923184 | 22.22° C | 47% | 1007.3 hPa | 0 mm | - | 121 W/m² | - |
| 1777922883 | 22.78° C | 47% | 1007.6 hPa | 0 mm | - | 579 W/m² | - |
| 1777922580 | 22.78° C | 51% | 1007.6 hPa | 0 mm | - | 626 W/m² | - |
| 1777922279 | 23.33° C | 45% | 1007.6 hPa | 0 mm | - | 651 W/m² | - |
| 1777921975 | 22.78° C | 47% | 1007.5 hPa | 0 mm | - | 669 W/m² | - |
| 1777921671 | 22.22° C | 47% | 1007.7 hPa | 0 mm | - | 634 W/m² | - |
| 1777921368 | 22.22° C | 47% | 1007.9 hPa | 0 mm | - | 682 W/m² | - |
| 1777921064 | 22.22° C | 48% | 1007.9 hPa | 0 mm | - | 296 W/m² | - |
* Rain latest hour (hover to see other rain measurements)
** Current wind speed in m/s (hover to see current wind gust speed)